CAPE
1666 1257 375 309 508 838 965 600 210 4 0 0 5 14 5 36 162 373 147 93 62 141 35 0 0 0 0 0 0 0 0 15 19 52 46 27 7 25 8 0 0 0 0
1729 1062 270 267 579 901 908 459 146 0 0 0 27 22 135 222 241 303 203 103 50 68 0 0 0 0 0 0 0 0 0 0 0 1 0 0 0 0 0 39 0 0 0
1549 603 189 179 521 785 632 499 40 0 0 1 63 110 337 329 210 121 115 23 16 26 25 2 0 0 0 0 2 29 47 43 38 52 46 491 377 17 8 0 0 0 0
1305 330 49 187 310 569 512 339 0 0 9 95 147 199 283 150 21 18 10 14 55 111 124 98 58 95 234 266 197 87 34 24 21 14 333 132 120 92 53 70 0 0 0
880 139 114 188 154 289 372 236 44 21 63 95 107 135 143 42 7 0 26 123 213 288 352 426 348 289 194 79 20 10 13 22 25 33 101 94 18 37 12 80 215 72 70
601 184 360 155 94 114 191 150 89 69 39 12 22 1 0 0 0 28 197 320 380 619 732 592 292 117 97 68 55 46 37 8 0 63 57 7 1 0 0 0 167 236 48
513 211 120 135 34 35 87 60 42 38 13 0 0 0 0 0 0 84 233 394 625 683 725 557 294 144 85 75 75 55 14 0 0 0 0 0 0 0 0 0 0 73 339
540 261 109 228 9 4 12 0 0 0 0 0 0 0 10 0 0 22 101 207 309 222 161 128 95 67 37 24 14 0 0 0 0 0 0 0 0 0 0 0 3 1 28
626 197 62 34 48 9 0 0 0 0 0 0 0 0 0 0 0 0 7 22 7 28 20 21 33 36 20 2 0 0 0 0 0 0 0 0 0 0 6 29 35 49 52
933 478 72 3 1 0 0 8 1 0 0 0 0 0 0 0 0 0 0 0 0 0 0 0 0 0 0 0 0 0 0 0 0 0 0 0 0 3 78 208 373 445 445
1101 630 133 41 19 0 0 35 39 51 49 27 16 0 0 0 0 0 0 0 0 0 0 0 0 0 2 11 0 0 0 0 0 0 0 4 2 5 129 392 431 551 768
1054 785 392 103 85 49 9 21 0 40 18 11 2 0 0 0 0 0 0 0 0 0 0 9 34 78 153 174 67 25 17 15 14 0 0 26 5 20 117 230 414 472 581
901 904 620 431 230 132 62 1 0 0 0 8 31 23 20 0 0 0 0 1 14 47 164 306 432 412 390 523 390 266 201 159 70 49 65 68 50 54 292 792 1042 817 500
1071 978 931 790 411 140 245 133 63 39 10 0 1 53 10 0 0 0 0 0 134 289 576 580 415 523 704 631 531 408 307 217 118 116 113 152 87 287 574 944 903 479 492
1229 1104 1129 977 667 409 507 235 277 236 126 71 108 59 0 0 0 0 2 0 0 393 522 511 756 907 905 688 672 790 659 588 553 443 272 285 501 365 146 189 429 259 274
1300 1269 1251 1092 905 821 448 506 543 517 483 434 301 206 147 16 40 0 0 0 0 67 288 584 1360 1410 1416 1435 999 860 756 537 442 529 592 560 578 199 87 90 198 175 203
1212 1323 1401 1272 1163 1147 880 802 546 549 495 505 349 467 199 130 89 30 9 30 69 280 568 1581 1516 1532 1510 1235 1017 910 603 492 465 488 751 653 521 343 197 192 187 279 155
1272 1263 1400 1181 1311 1230 1312 990 607 690 658 397 120 81 160 142 142 214 449 504 410 813 1110 1201 1183 1458 1262 943 982 847 783 890 945 919 796 629 645 379 381 73 25 9 0
1349 1271 1154 914 1031 1052 1441 1142 949 932 201 73 71 219 394 233 267 406 416 567 794 659 666 624 898 1028 1012 907 669 537 620 614 661 739 653 596 360 156 16 0 0 0 0
1286 1090 866 798 978 1371 1282 845 262 68 23 560 1197 1251 1431 1240 1206 1048 661 200 83 54 66 40 58 415 732 667 437 303 291 729 572 571 280 311 0 0 0 0 0 0 0
1288 1044 982 826 1187 1053 658 44 37 83 744 937 760 764 635 602 571 569 222 5 8 2 53 33 159 351 495 459 214 170 221 518 725 0 85 3 0 0 0 0 0 0 0
1170 1059 943 859 994 678 542 577 1282 1282 1107 708 361 93 145 65 263 168 257 13 19 12 22 67 170 206 265 126 52 0 0 0 390 0 0 0 0 0 0 0 0 1 1
1038 1007 877 908 954 706 1156 1756 1364 991 593 536 331 51 72 2 13 49 23 21 17 93 19 0 0 3 4 0 0 0 0 0 0 0 0 0 0 0 0 0 0 0 0
988 905 985 893 909 1015 1048 1147 1236 1220 879 496 224 4 1 2 1 1 2 0 0 0 0 0 0 0 0 0 0 0 0 0 0 0 0 0 0 0 0 0 0 0 0
1094 1134 972 975 1077 1106 1016 986 1022 700 625 440 127 1 1 0 0 0 0 0 0 0 0 0 0 0 0 0 0 0 0 0 0 0 0 0 0 0 0 0 0 0 0
863 773 842 1063 1291 1486 1634 1467 995 678 457 5 0 0 0 0 0 0 0 0 0 0 0 0 0 0 0 0 0 0 0 0 0 0 0 0 0 0 0 0 0 0 0
CIN
-110 -206 -453 -448 -346 -254 -210 -267 -393 -70 -0 -0 -367 -495 -349 -371 -262 -204 -242 -240 -243 -209 -259 -0 -0 -0 -0 -0 -0 -0 -0 -212 -185 -174 -147 -173 -63 -148 -34 -0 -0 -0 -0
-129 -259 -496 -455 -327 -243 -204 -299 -386 -0 -0 -0 -466 -424 -283 -231 -218 -212 -233 -259 -281 -254 -0 -0 -0 -0 -0 -0 -0 -0 -0 -0 -0 -21 -10 -0 -0 -0 -0 -100 -0 -0 -0
-172 -338 -498 -487 -329 -263 -256 -268 -159 -0 -0 -30 -380 -307 -205 -204 -232 -261 -272 -314 -338 -304 -309 -55 -0 -0 -0 -0 -35 -208 -181 -159 -159 -134 -114 -17 -2 -68 -65 -0 -0 -0 -0
-203 -430 -575 -488 -387 -292 -284 -314 -0 -0 -184 -340 -296 -252 -213 -260 -353 -361 -410 -376 -304 -273 -250 -242 -247 -214 -141 -118 -128 -156 -185 -211 -197 -189 -18 -16 -1 -57 -106 -106 -0 -0 -0
-250 -477 -514 -479 -462 -370 -314 -348 -429 -427 -356 -307 -302 -285 -270 -337 -193 -0 -350 -273 -216 -174 -152 -110 -128 -133 -161 -194 -266 -278 -255 -223 -211 -169 -12 -18 -72 -84 -33 -109 -89 -108 -108
-258 -378 -388 -514 -507 -462 -377 -377 -397 -390 -390 -403 -355 -9 -0 -0 -0 -329 -225 -163 -138 -77 -57 -83 -165 -228 -221 -233 -251 -246 -249 -274 -0 -55 -37 -14 -8 -0 -0 -4 -99 -81 -114
-249 -323 -492 -514 -601 -555 -455 -445 -457 -442 -425 -0 -0 -0 -0 -0 -0 -274 -205 -145 -87 -76 -72 -99 -159 -231 -272 -270 -286 -314 -370 -0 -0 -0 -0 -0 -0 -0 -0 -0 -0 -115 -88
-247 -315 -446 -391 -285 -507 -537 -0 -0 -0 -0 -0 -0 -0 -354 -0 -0 -333 -259 -208 -188 -200 -209 -218 -250 -297 -351 -384 -421 -0 -0 -0 -0 -0 -0 -0 -0 -0 -0 -0 -130 -86 -189
-212 -333 -459 -521 -515 -626 -0 -0 -0 -0 -0 -0 -0 -0 -0 -0 -0 -0 -408 -375 -75 -352 -380 -405 -395 -385 -429 -234 -0 -0 -0 -0 -0 -0 -0 -0 -0 -0 -247 -221 -205 -185 -184
-116 -206 -398 -505 -273 -0 -0 -619 -281 -0 -0 -0 -0 -0 -0 -0 -0 -0 -0 -0 -0 -0 -0 -0 -0 -0 -0 -0 -0 -0 -0 -0 -0 -0 -0 -0 -13 -101 -185 -139 -99 -87 -80
-88 -165 -298 -415 -509 -37 -0 -433 -389 -348 -313 -317 -320 -0 -0 -0 -0 -0 -0 -0 -0 -0 -0 -0 -0 -0 -152 -120 -9 -0 -0 -0 -0 -0 -0 -175 -176 -273 -139 -78 -73 -59 -54
-102 -127 -183 -267 -338 -403 -553 -538 -0 -314 -322 -298 -228 -0 -0 -0 -0 -0 -0 -0 -0 -0 -0 -230 -385 -329 -275 -169 -212 -284 -263 -234 -200 -0 -0 -192 -128 -207 -97 -67 -58 -42 -37
-99 -93 -137 -180 -234 -221 -272 -271 -0 -0 -0 -103 -250 -226 -198 -0 -0 -0 -0 -19 -290 -271 -145 -109 -77 -75 -79 -73 -95 -108 -119 -121 -124 -105 -70 -132 -195 -190 -82 -48 -32 -41 -67
-109 -101 -107 -123 -202 -207 -153 -209 -246 -267 -307 -24 -213 -216 -39 -0 -0 -0 -0 -0 -156 -71 -31 -29 -52 -43 -17 -31 -63 -95 -104 -106 -106 -98 -70 -124 -140 -92 -62 -27 -24 -76 -75
-99 -76 -90 -89 -142 -163 -128 -176 -136 -146 -186 -196 -177 -201 -0 -0 -0 -0 -109 -0 -142 -44 -11 -2 -1 -1 -1 -14 -26 -14 -34 -48 -51 -52 -49 -38 -65 -68 -119 -105 -53 -94 -94
-94 -83 -89 -65 -109 -102 -151 -107 -88 -68 -59 -45 -57 -93 -139 -237 -237 -0 -0 -0 -0 -202 -81 -14 -1 -1 -1 -1 -15 -31 -44 -59 -58 -34 -2 -3 -27 -84 -107 -142 -98 -99 -86
-124 -85 -89 -47 -64 -34 -59 -61 -79 -57 -19 -8 -26 -46 -112 -161 -179 -207 -189 -204 -167 -89 -27 -1 -1 -2 -1 -5 -10 -23 -50 -38 -34 -20 -1 -0 -3 -18 -34 -67 -85 -45 -99
-105 -106 -66 -70 -36 -30 -7 -29 -38 -16 -3 -32 -97 -156 -165 -201 -195 -129 -15 -26 -81 -32 -9 -5 -5 -0 -1 -89 -3 -2 -3 -1 -1 -5 -0 -1 -0 -1 -10 -133 -198 -200 -0
-105 -97 -108 -135 -75 -71 -11 -12 -13 -13 -123 -172 -194 -123 -126 -162 -132 -72 -53 -18 -0 -44 -114 -101 -38 -8 -1 -34 -9 -23 -20 -4 -6 -2 -0 -1 -4 -35 -93 -0 -0 -0 -0
-132 -119 -135 -109 -79 -17 -15 -35 -141 -206 -268 -65 -2 -3 -7 -13 -17 -22 -55 -185 -258 -217 -248 -317 -266 -88 -4 -2 -20 -45 -51 -1 -3 -3 -8 -3 -0 -0 -0 -0 -0 -0 -0
-128 -138 -111 -118 -59 -49 -100 -322 -276 -253 -20 -23 -36 -49 -76 -95 -109 -109 -155 -329 -341 -239 -243 -399 -118 -36 -2 -3 -24 -27 -6 -1 -3 -0 -33 -18 -0 -0 -0 -0 -0 -0 -0
-149 -130 -136 -133 -81 -143 -158 -80 -2 -1 -5 -43 -103 -187 -159 -234 -137 -195 -97 -232 -300 -289 -327 -250 -50 -0 -1 -13 -81 -0 -0 -0 -5 -0 -0 -0 -0 -0 -0 -0 -0 -1 -1
-150 -143 -187 -164 -137 -154 -32 -0 -6 -24 -55 -58 -82 -189 -191 -71 -226 -294 -305 -225 -225 -176 -379 -83 -0 -15 -97 -0 -0 -0 -0 -0 -0 -0 -0 -0 -0 -0 -0 -0 -0 -0 -0
-154 -174 -160 -171 -128 -96 -45 -19 -21 -8 -8 -44 -87 -65 -0 -0 -0 -0 -0 -0 -0 -0 -0 -0 -0 -0 -0 -0 -0 -0 -0 -0 -0 -0 -0 -0 -0 -0 -0 -0 -0 -0 -1
-180 -158 -167 -137 -92 -71 -65 -26 -15 -16 -23 -69 -170 -0 -0 -0 -0 -0 -0 -0 -0 -0 -0 -0 -0 -0 -0 -0 -0 -0 -0 -0 -0 -0 -0 -0 -0 -0 -0 -0 -0 -0 -0
-141 -177 -222 -129 -119 -51 -5 -2 -9 -26 -66 -142 -0 -0 -0 -0 -0 -0 -0 -0 -0 -0 -0 -0 -0 -0 -0 -0 -0 -0 -0 -0 -0 -0 -0 -0 -0 -0 -0 -0 -0 -0 -0
Wind_Speed
8 12 14 15 15 14 16 14 16 18 21 24 26 26 25 25 25 23 22 22 21 21 22 22 23 23 23 22 22 21 21 21 20 19 19 18 18 17 16 16 15 13 18
8 14 14 13 15 15 15 12 12 15 18 22 22 22 21 20 21 20 20 19 19 20 20 20 21 21 21 20 20 20 19 19 18 17 15 14 15 16 14 13 13 15 14
8 14 19 15 14 14 13 9 8 11 14 15 16 17 17 17 18 18 18 18 18 18 19 19 19 19 19 19 19 18 18 17 16 14 11 9 13 13 11 11 10 10 12
9 14 18 13 11 11 11 8 9 8 8 9 10 13 14 16 16 17 17 17 17 17 18 18 18 18 17 17 17 16 16 15 13 11 8 12 10 12 10 8 7 7 8
10 12 11 12 10 11 10 7 8 8 6 5 8 11 11 13 14 16 15 15 15 16 16 17 17 16 16 16 15 15 15 14 11 7 10 11 12 15 11 7 6 6 6
12 9 9 9 10 11 10 7 7 6 6 6 6 6 8 11 12 12 12 13 14 15 15 15 15 14 14 14 14 14 14 13 9 6 10 9 8 13 11 10 7 5 7
12 9 10 6 8 10 11 7 6 6 5 5 5 5 7 8 8 9 11 12 13 13 13 14 14 13 12 13 13 12 12 11 10 8 9 8 9 15 11 9 9 8 7
11 10 9 6 5 6 7 7 6 5 4 3 3 4 5 6 7 8 9 10 11 12 13 14 15 14 14 13 12 10 10 11 8 9 9 10 13 14 13 12 12 11 9
10 12 7 6 6 4 5 5 5 5 3 2 2 3 5 7 8 9 10 10 11 13 14 15 15 15 14 11 9 9 9 10 10 9 12 12 18 17 16 15 14 13 13
7 6 7 7 6 6 4 3 3 3 2 1 3 4 6 7 9 10 11 11 13 14 16 18 18 16 13 10 7 9 11 9 7 13 12 13 18 20 18 17 16 16 15
6 7 7 7 8 6 4 4 2 1 1 2 4 6 6 9 9 11 13 15 16 17 17 14 15 14 12 7 8 12 12 10 15 14 16 17 20 21 20 19 18 18 18
9 10 10 9 7 7 5 3 3 3 3 4 6 7 10 11 12 15 14 16 18 19 18 16 15 14 11 16 17 12 13 16 16 17 18 21 23 23 22 22 23 23 23
11 12 10 10 8 6 6 4 4 4 5 6 6 7 10 11 12 13 16 16 19 17 22 19 20 18 22 21 20 20 20 19 19 20 20 23 25 26 25 25 25 26 25
8 8 9 8 8 7 5 5 3 3 3 4 5 7 10 11 13 16 18 20 20 22 24 23 25 25 24 23 22 22 20 21 21 23 22 24 26 28 27 27 25 28 25
11 9 8 8 8 7 7 5 4 4 4 6 7 8 12 13 14 16 18 21 23 24 25 28 28 27 28 26 25 24 22 23 23 24 25 25 25 28 29 30 29 30 29
17 11 10 7 8 7 7 6 6 6 5 7 10 11 11 12 14 16 17 19 21 24 26 29 30 30 30 31 31 28 28 26 26 26 27 27 25 28 29 30 29 31 30
14 10 8 8 9 9 8 6 7 6 8 11 12 12 12 12 13 15 17 18 21 24 27 29 31 33 33 34 34 32 30 29 27 27 29 29 30 25 28 28 31 31 32
11 10 13 11 10 11 9 7 8 9 10 11 12 12 11 12 13 15 16 19 22 24 27 31 33 34 33 34 38 32 32 32 30 29 27 28 29 30 26 31 33 34 36
10 11 11 10 9 10 8 8 8 9 10 11 11 12 13 13 14 15 18 20 23 24 24 30 33 34 34 35 36 32 28 26 27 25 26 27 28 31 31 35 36 34 34
9 11 10 8 8 7 5 5 6 6 7 10 12 12 12 13 14 14 16 17 19 24 28 32 37 29 36 16 22 20 27 24 25 26 28 27 31 33 35 36 37 35 33
10 11 9 7 5 4 3 3 4 4 7 9 10 11 11 12 12 13 14 16 22 26 23 26 3 13 14 15 21 29 27 21 20 30 27 29 31 36 34 34 34 35 35
11 10 7 6 5 5 3 5 5 5 7 8 10 13 15 17 18 19 18 14 20 25 17 18 10 8 7 21 28 26 27 26 17 29 27 28 33 34 34 33 34 33 35
10 8 7 6 3 3 4 4 5 6 8 9 11 13 17 19 20 20 20 13 16 17 20 17 17 16 19 22 24 25 26 25 30 23 26 30 34 31 33 32 33 31 35
11 7 8 5 4 5 4 4 4 6 7 11 11 14 17 18 20 19 21 22 19 15 20 19 21 21 23 22 23 25 22 25 26 29 29 30 32 30 32 32 34 34 36
11 8 8 4 4 5 5 4 4 7 10 10 12 14 15 16 18 19 19 21 21 20 21 21 21 20 20 22 23 24 24 22 23 24 30 33 32 28 32 32 34 36 39
12 8 7 3 6 3 4 5 6 7 9 11 12 13 15 16 17 19 21 22 22 22 20 20 20 21 22 22 21 23 24 24 25 28 30 32 33 32 31 30 37 36 40
Wind_Direction
97 113 115 108 104 102 107 111 111 109 109 112 114 114 112 110 109 102 98 94 88 86 86 87 91 94 94 91 87 87 87 83 80 77 73 72 67 65 68 71 73 75 51
105 116 118 111 106 105 106 113 112 108 108 112 108 107 101 97 102 98 95 90 88 87 86 85 87 90 88 85 84 86 81 77 76 76 77 82 75 67 78 78 78 66 61
108 117 122 115 109 107 108 118 120 111 105 100 96 95 92 93 97 93 91 88 86 85 84 84 86 88 84 79 79 74 68 67 71 75 88 97 76 75 86 84 82 74 69
110 118 123 118 112 108 112 125 120 116 103 93 85 87 88 90 90 90 92 87 84 81 79 79 79 79 74 66 66 61 59 60 67 78 89 70 74 68 72 86 84 82 78
117 121 124 122 116 112 116 138 126 116 106 88 82 84 78 80 83 89 83 75 72 72 72 66 66 66 67 57 54 48 47 50 62 77 62 59 57 52 56 68 71 67 60
118 124 132 131 120 114 120 140 131 121 108 94 79 62 60 67 68 64 60 57 60 60 55 55 55 62 55 46 45 41 38 39 49 59 47 47 45 35 35 39 42 34 25
119 126 135 157 131 119 122 135 131 121 109 94 76 52 48 46 43 47 47 48 48 44 44 41 42 47 50 41 38 38 36 32 31 29 27 30 23 14 17 18 18 12 2
119 126 138 176 161 131 127 135 134 124 113 90 55 29 14 17 18 18 23 29 29 33 25 14 11 24 22 26 29 30 27 20 20 18 17 17 12 9 7 6 4 1 356
122 127 153 161 200 179 139 139 136 122 111 76 33 6 348 344 350 0 9 15 14 8 7 4 5 8 12 24 28 22 18 14 11 9 8 9 8 2 0 357 354 350 347
148 179 171 192 197 211 193 182 157 124 98 41 328 335 341 340 343 348 355 4 356 0 350 343 352 1 13 19 20 12 7 4 5 6 2 1 357 354 352 348 345 342 340
181 178 188 188 213 219 203 208 202 228 321 349 320 316 334 325 339 347 337 336 341 343 346 5 2 8 12 12 11 6 3 7 2 0 356 357 351 349 348 345 342 340 337
204 214 214 207 207 222 229 193 233 255 286 305 309 313 312 319 324 319 334 334 331 332 344 355 2 3 9 1 360 3 4 358 355 353 350 351 347 346 344 342 341 340 338
213 221 213 216 206 213 232 228 257 274 294 304 315 323 320 331 333 333 331 337 329 343 330 343 345 350 344 348 351 348 349 350 349 348 346 346 345 344 343 343 342 341 340
196 196 207 209 212 216 233 244 268 311 332 348 349 343 329 327 330 324 324 321 327 324 324 332 333 335 340 343 344 343 346 345 345 343 341 344 342 342 342 341 340 341 341
220 196 188 198 214 221 238 256 277 306 341 336 342 338 326 327 326 323 320 318 316 320 322 323 328 331 332 336 336 341 343 342 341 340 339 339 342 341 338 336 336 336 336
229 219 155 191 228 230 246 259 281 305 334 333 325 328 332 330 329 323 328 324 323 321 323 322 323 324 324 327 327 336 338 338 338 337 336 337 340 339 339 339 338 336 336
227 217 181 220 234 242 253 265 287 307 316 313 316 323 327 334 335 334 332 329 325 323 321 321 320 319 321 320 323 331 336 338 338 337 335 337 336 342 343 343 340 339 338
215 213 226 232 239 247 257 270 287 303 307 314 319 329 335 339 335 337 336 331 325 326 323 322 322 321 321 326 313 334 337 336 337 337 338 341 342 341 348 345 342 338 335
211 213 221 232 238 242 253 269 290 302 314 321 328 336 337 338 338 334 333 332 331 331 335 331 325 324 321 323 325 334 340 342 344 346 345 345 346 343 341 339 337 335 337
204 216 225 233 232 237 253 286 310 323 335 342 340 341 343 343 339 339 338 337 338 334 330 330 326 327 311 344 345 344 342 346 349 349 346 349 346 343 341 339 339 338 339
205 214 218 225 222 233 257 297 327 357 6 358 359 359 0 350 345 342 340 336 330 333 339 317 265 250 259 354 350 345 346 354 357 349 352 347 346 344 345 346 346 344 342
205 212 211 219 222 253 289 306 324 355 7 4 349 344 341 341 340 352 347 347 334 336 14 4 12 356 352 359 349 349 350 352 6 354 356 354 350 349 350 351 351 350 348
202 201 204 215 220 264 298 333 358 359 352 346 341 341 337 339 338 346 354 6 349 360 1 14 9 8 360 1 4 2 357 356 350 3 360 356 354 356 356 356 356 356 353
200 205 215 210 241 267 289 350 24 1 357 348 355 356 347 6 346 353 13 23 24 28 11 12 4 5 4 5 7 5 6 1 360 356 360 3 0 2 1 2 359 356 354
194 192 210 222 260 278 305 12 9 355 354 3 7 17 24 26 10 15 23 23 23 23 13 9 12 20 18 11 8 8 9 11 12 8 1 1 5 9 4 3 1 356 354
194 188 196 237 278 333 48 358 353 8 13 19 23 35 41 34 26 20 16 17 17 17 24 25 27 22 17 18 19 19 17 18 14 10 6 4 4 6 9 8 0 359 355